When you browse on this site, cookies collect data to enhance your experience and personalize the content and advertising you see.
Visit our Privacy Policy to learn more. By continuing to use the site, you agree to this use of cookies and data.
  • In Romania
  • List of Countries
  • For 7 days
  • Water Temperature
  • Satellite Maps
  • Weather Map
  • Weather Widgets
  • user-avatar
    Login

    Hourly Weather Melbourne

    Today, 20 May, Monday

    Time Temperature Precipitation Wind Pressure Humidity
    00:00 +15°C° 0 mm 5 mps 766 mmHg 54%
    01:00 +15°C° 0 mm 5 mps 766 mmHg 53%
    02:00 +15°C° 0 mm 5 mps 766 mmHg 53%
    03:00 +15°C° 0 mm 5 mps 765 mmHg 53%
    04:00 +15°C° 0 mm 5 mps 765 mmHg 54%
    05:00 +16°C° 0 mm 6 mps 765 mmHg 54%
    06:00 +16°C° 0 mm 6 mps 764 mmHg 54%
    07:00 +16°C° 0 mm 7 mps 764 mmHg 54%
    08:00 +17°C° 0.1 mm 7 mps 764 mmHg 54%
    09:00 +17°C° 0.1 mm 7 mps 764 mmHg 54%
    10:00 +17°C° 0 mm 8 mps 764 mmHg 60%
    11:00 +18°C° 0.4 mm 8 mps 763 mmHg 59%
    12:00 +18°C° 0.4 mm 7 mps 763 mmHg 58%
    13:00 +20°C° 0.4 mm 7 mps 762 mmHg 57%
    14:00 +20°C° 0 mm 6 mps 762 mmHg 57%
    15:00 +20°C° 0 mm 6 mps 762 mmHg 57%
    16:00 +19°C° 0 mm 6 mps 762 mmHg 58%
    17:00 +17°C° 0 mm 5 mps 762 mmHg 61%
    18:00 +18°C° 0 mm 4 mps 763 mmHg 64%
    19:00 +17°C° 0 mm 4 mps 763 mmHg 67%
    20:00 +17°C° 0 mm 3 mps 763 mmHg 69%
    21:00 +16°C° 0 mm 3 mps 764 mmHg 70%
    22:00 +15°C° 0 mm 4 mps 764 mmHg 68%
    23:00 +16°C° 0 mm 3 mps 764 mmHg 70%

    Tomorrow, 21 May, Tuesday

    Time Temperature Precipitation Wind Pressure Humidity
    00:00 +14°C° 0 mm 3 mps 764 mmHg 73%
    01:00 +14°C° 0 mm 3 mps 764 mmHg 75%
    02:00 +13°C° 0 mm 3 mps 764 mmHg 76%
    03:00 +13°C° 0 mm 3 mps 764 mmHg 77%
    04:00 +14°C° 0 mm 2 mps 764 mmHg 78%
    05:00 +12°C° 0 mm 3 mps 765 mmHg 79%
    06:00 +12°C° 0 mm 3 mps 765 mmHg 80%
    07:00 +12°C° 0 mm 3 mps 765 mmHg 81%
    08:00 +13°C° 0 mm 3 mps 766 mmHg 76%
    09:00 +16°C° 0 mm 3 mps 766 mmHg 71%
    10:00 +17°C° 0 mm 3 mps 766 mmHg 65%
    11:00 +18°C° 0 mm 3 mps 766 mmHg 62%
    12:00 +19°C° 0 mm 3 mps 766 mmHg 58%
    13:00 +20°C° 0 mm 3 mps 765 mmHg 54%
    14:00 +20°C° 0 mm 3 mps 765 mmHg 55%
    15:00 +20°C° 0 mm 2 mps 765 mmHg 56%
    16:00 +20°C° 0 mm 2 mps 765 mmHg 57%
    17:00 +19°C° 0 mm 2 mps 766 mmHg 61%
    18:00 +18°C° 0 mm 2 mps 766 mmHg 65%
    19:00 +17°C° 0 mm 2 mps 766 mmHg 69%
    20:00 +16°C° 0 mm 2 mps 767 mmHg 72%
    21:00 +16°C° 0 mm 2 mps 767 mmHg 75%
    22:00 +15°C° 0 mm 2 mps 767 mmHg 78%
    23:00 +14°C° 0 mm 3 mps 767 mmHg 79%

    Day after tomorrow, 22 May, Wednesday

    Time Temperature Precipitation Wind Pressure Humidity
    00:00 +13°C° 0 mm 3 mps 768 mmHg 80%
    01:00 +13°C° 0 mm 3 mps 768 mmHg 81%
    02:00 +13°C° 0 mm 3 mps 768 mmHg 82%
    03:00 +13°C° 0 mm 3 mps 768 mmHg 82%
    04:00 +12°C° 0 mm 3 mps 768 mmHg 83%
    05:00 +12°C° 0 mm 3 mps 768 mmHg 83%
    06:00 +12°C° 0 mm 3 mps 768 mmHg 83%
    07:00 +12°C° 0 mm 3 mps 769 mmHg 84%
    08:00 +14°C° 0 mm 2 mps 769 mmHg 77%
    09:00 +15°C° 0 mm 2 mps 769 mmHg 70%
    10:00 +17°C° 0 mm 2 mps 770 mmHg 64%
    11:00 +18°C° 0 mm 2 mps 769 mmHg 56%
    12:00 +21°C° 0 mm 1 mps 769 mmHg 48%
    13:00 +22°C° 0 mm 1 mps 769 mmHg 40%
    14:00 +22°C° 0 mm 1 mps 769 mmHg 41%
    15:00 +22°C° 0 mm 1 mps 768 mmHg 43%
    16:00 +22°C° 0 mm 1 mps 768 mmHg 44%
    17:00 +20°C° 0 mm 1 mps 769 mmHg 50%
    18:00 +18°C° 0 mm 1 mps 769 mmHg 56%
    19:00 +16°C° 0 mm 1 mps 769 mmHg 63%
    20:00 +15°C° 0 mm 1 mps 770 mmHg 65%
    21:00 +15°C° 0 mm 1 mps 770 mmHg 68%
    22:00 +14°C° 0 mm 1 mps 770 mmHg 70%
    23:00 +14°C° 0 mm 1 mps 770 mmHg 71%

    23 May, Thursday

    Time Temperature Precipitation Wind Pressure Humidity
    00:00 +13°C° 0 mm 2 mps 770 mmHg 71%
    01:00 +13°C° 0 mm 2 mps 769 mmHg 72%
    02:00 +13°C° 0 mm 2 mps 769 mmHg 72%
    03:00 +13°C° 0 mm 2 mps 769 mmHg 72%
    04:00 +12°C° 0 mm 3 mps 769 mmHg 72%
    05:00 +12°C° 0 mm 3 mps 769 mmHg 72%
    06:00 +12°C° 0 mm 3 mps 769 mmHg 71%
    07:00 +12°C° 0 mm 3 mps 769 mmHg 70%
    08:00 +13°C° 0 mm 4 mps 769 mmHg 65%
    09:00 +15°C° 0 mm 4 mps 768 mmHg 59%
    10:00 +16°C° 0 mm 5 mps 768 mmHg 54%
    11:00 +19°C° 0 mm 5 mps 768 mmHg 50%
    12:00 +20°C° 0 mm 5 mps 767 mmHg 47%
    13:00 +21°C° 0 mm 6 mps 766 mmHg 43%
    14:00 +21°C° 0 mm 5 mps 766 mmHg 45%
    15:00 +21°C° 0 mm 5 mps 765 mmHg 48%
    16:00 +21°C° 0 mm 5 mps 765 mmHg 50%
    17:00 +20°C° 0 mm 5 mps 765 mmHg 53%
    18:00 +19°C° 0 mm 5 mps 765 mmHg 56%
    19:00 +18°C° 0 mm 4 mps 765 mmHg 59%
    20:00 +17°C° 0 mm 4 mps 765 mmHg 59%
    21:00 +17°C° 0 mm 4 mps 765 mmHg 58%
    22:00 +17°C° 0 mm 4 mps 765 mmHg 58%
    23:00 +15°C° 0 mm 4 mps 765 mmHg 59%

    24 May, Friday

    Time Temperature Precipitation Wind Pressure Humidity
    00:00 +16°C° 0 mm 3 mps 765 mmHg 60%
    01:00 +16°C° 0 mm 3 mps 765 mmHg 61%
    02:00 +14°C° 0 mm 3 mps 764 mmHg 63%
    03:00 +15°C° 0 mm 2 mps 764 mmHg 65%
    04:00 +14°C° 0 mm 2 mps 764 mmHg 67%
    05:00 +13°C° 0 mm 3 mps 764 mmHg 66%
    06:00 +13°C° 0 mm 3 mps 764 mmHg 66%
    07:00 +13°C° 0 mm 3 mps 764 mmHg 66%
    08:00 +13°C° 0 mm 3 mps 764 mmHg 64%
    09:00 +14°C° 0 mm 3 mps 763 mmHg 62%
    10:00 +16°C° 0 mm 3 mps 763 mmHg 59%
    11:00 +17°C° 0.2 mm 4 mps 763 mmHg 58%
    12:00 +18°C° 0.2 mm 4 mps 762 mmHg 56%
    13:00 +19°C° 0.2 mm 4 mps 761 mmHg 55%
    14:00 +18°C° 1 mm 4 mps 761 mmHg 63%
    15:00 +16°C° 1 mm 5 mps 761 mmHg 70%
    16:00 +16°C° 1 mm 5 mps 760 mmHg 78%
    17:00 +15°C° 1.6 mm 5 mps 761 mmHg 80%
    18:00 +15°C° 1.6 mm 5 mps 761 mmHg 81%
    19:00 +15°C° 1.6 mm 5 mps 761 mmHg 82%
    20:00 +14°C° 0.1 mm 4 mps 761 mmHg 83%
    21:00 +14°C° 0.1 mm 4 mps 761 mmHg 83%
    22:00 +14°C° 0.1 mm 3 mps 762 mmHg 84%
    23:00 +14°C° 0 mm 3 mps 761 mmHg 85%

    25 May, Saturday

    Time Temperature Precipitation Wind Pressure Humidity
    00:00 +14°C° 0 mm 3 mps 761 mmHg 86%
    01:00 +13°C° 0 mm 3 mps 761 mmHg 87%
    02:00 +13°C° 0 mm 3 mps 761 mmHg 88%
    03:00 +14°C° 0 mm 2 mps 761 mmHg 89%
    04:00 +14°C° 0 mm 2 mps 761 mmHg 89%
    05:00 +14°C° 0 mm 2 mps 761 mmHg 89%
    06:00 +13°C° 0 mm 2 mps 761 mmHg 89%
    07:00 +13°C° 0 mm 1 mps 762 mmHg 89%
    08:00 +14°C° 0 mm 2 mps 762 mmHg 86%
    09:00 +15°C° 0 mm 2 mps 762 mmHg 83%
    10:00 +15°C° 0 mm 2 mps 762 mmHg 81%
    11:00 +16°C° 0 mm 3 mps 761 mmHg 74%
    12:00 +17°C° 0 mm 3 mps 760 mmHg 68%
    13:00 +18°C° 0 mm 4 mps 760 mmHg 62%
    14:00 +18°C° 0 mm 4 mps 759 mmHg 62%
    15:00 +18°C° 0 mm 4 mps 759 mmHg 62%
    16:00 +18°C° 0 mm 4 mps 759 mmHg 62%
    17:00 +17°C° 0.1 mm 4 mps 759 mmHg 66%
    18:00 +15°C° 0.1 mm 4 mps 759 mmHg 69%
    19:00 +14°C° 0.1 mm 3 mps 759 mmHg 73%
    20:00 +14°C° 1.2 mm 3 mps 759 mmHg 75%
    21:00 +14°C° 1.2 mm 3 mps 759 mmHg 78%
    22:00 +13°C° 1.2 mm 3 mps 759 mmHg 81%
    23:00 +13°C° 0.3 mm 3 mps 758 mmHg 82%
    Show more